Weather History for KELY - July, 2013

Change the Weather History Date:

Tuesday, July 30, 2013

  Actual Average Record
Temperature  
Mean Temperature 69 °F 69 °F  
Max Temperature 88 °F 88 °F 99 °F (2000)
Min Temperature 49 °F 49 °F 36 °F (1950)
Degree Days  
Heating Degree Days 0 0  
Month to date heating degree days 5 20  
Since 1 June heating degree days 100 195  
Since 1 July heating degree days 5 20  
Cooling Degree Days 4 4  
Month to date cooling degree days 204 106  
Year to date cooling degree days 261 130  
Since 1 June cooling degree days 261 129  
Growing Degree Days 20 (Base 50)    
Moisture  
Dew Point 35 °F    
Average Humidity 38    
Maximum Humidity 63    
Minimum Humidity 13    
Precipitation  
Precipitation 0.00 in 0.03 in 0.67 in (1939)
Month to date precipitation 0.25 0.61  
Year to date precipitation 3.36 5.71  
Snow  
Snow 0.00 in 0.00 in 0.00 in (1893)
Month to date snowfall 0.0 0.0  
Since 1 June snowfall 0.0 0.1  
Since 1 July snowfall 0.0 0.0  
Snow Depth 0.00 in    
Sea Level Pressure  
Sea Level Pressure 29.99 in    
Wind  
Wind Speed 11 mph (South)    
Max Wind Speed 23 mph    
Max Gust Speed 30 mph    
Visibility 10 miles    
Events      
T = Trace of Precipitation, MM = Missing Value Source: NWS Daily Summary

Daily Weather History Graph

Daily Weather History Graph

Search for Another Location

Airport or City:

Trip Planner

Search our weather history database for the weather conditions in past years. The results will help you decide how hot, cold, wet, or windy it might be!

Date:

Astronomy

Jul. 30, 2013 Rise Set
Actual Time 5:37 AM PDT 7:53 PM PDT
Civil Twilight 5:07 AM PDT 8:23 PM PDT
Nautical Twilight 4:30 AM PDT 8:59 PM PDT
Astronomical Twilight 3:50 AM PDT 9:40 PM PDT
Moon No Moon Rise 2:17 PM PDT (7/30)
Length of Visible Light 15h 15m
Length of Day
14h 15m
Last Quarter, 40% of the Moon is Illuminated
Jul 30
Last Quarter
Aug 6
New
Aug 14
First Quarter
Aug 20
Full
Aug 28
Last Quarter

Hourly Weather History & Observations

Time (PDT) Temp. Dew Point Humidity Pressure Visibility Wind Dir Wind Speed Gust Speed Precip Events Conditions
12:53 AM 55.0 °F 39.9 °F 57% 29.98 in 10.0 mi SSE 8.1 mph - N/A   Clear
1:53 AM 57.9 °F 39.9 °F 51% 29.97 in 10.0 mi Calm Calm - N/A   Clear
2:53 AM 53.1 °F 39.0 °F 59% 29.98 in 10.0 mi SE 4.6 mph - N/A   Clear
3:53 AM 57.0 °F 39.9 °F 53% 29.99 in 10.0 mi SSW 12.7 mph - N/A   Clear
4:53 AM 57.0 °F 39.9 °F 53% 30.01 in 10.0 mi Calm Calm - N/A   Clear
5:53 AM 52.0 °F 39.0 °F 61% 30.04 in 10.0 mi SSE 6.9 mph - N/A   Partly Cloudy
6:53 AM 62.1 °F 41.0 °F 46% 30.03 in 10.0 mi South 6.9 mph - N/A   Scattered Clouds
7:53 AM 70.0 °F 39.0 °F 32% 30.03 in 10.0 mi South 10.4 mph - N/A   Clear
8:53 AM 75.9 °F 35.1 °F 23% 30.02 in 10.0 mi SSE 8.1 mph - N/A   Clear
9:53 AM 80.1 °F 30.9 °F 17% 30.03 in 10.0 mi South 11.5 mph 19.6 mph N/A   Clear
10:53 AM 82.0 °F 30.9 °F 16% 30.02 in 10.0 mi SSW 21.9 mph 27.6 mph N/A   Clear
11:53 AM 82.9 °F 32.0 °F 16% 30.01 in 10.0 mi WSW 16.1 mph 23.0 mph N/A   Partly Cloudy
12:53 PM 82.9 °F 30.9 °F 15% 30.02 in 10.0 mi SW 18.4 mph 26.5 mph N/A   Scattered Clouds
1:53 PM 86.0 °F 30.0 °F 13% 29.99 in 10.0 mi SSW 15.0 mph 26.5 mph N/A   Scattered Clouds
2:53 PM 86.0 °F 30.0 °F 13% 29.99 in 10.0 mi South 9.2 mph 18.4 mph N/A   Partly Cloudy
3:53 PM 87.1 °F 32.0 °F 14% 29.96 in 10.0 mi South 23.0 mph 27.6 mph N/A   Partly Cloudy
4:53 PM 86.0 °F 30.9 °F 14% 29.95 in 10.0 mi SW 12.7 mph 21.9 mph N/A   Partly Cloudy
5:53 PM 84.9 °F 32.0 °F 15% 29.97 in 10.0 mi South 12.7 mph - N/A   Clear
6:53 PM 82.9 °F 32.0 °F 16% 29.94 in 10.0 mi South 8.1 mph - N/A   Clear
7:53 PM 75.0 °F 33.1 °F 22% 29.94 in 10.0 mi South 9.2 mph - N/A   Clear
8:53 PM 66.0 °F 35.1 °F 32% 29.98 in 10.0 mi SSE 6.9 mph - N/A   Clear
9:53 PM 71.1 °F 35.1 °F 27% 29.98 in 10.0 mi South 9.2 mph - N/A   Clear
10:53 PM 66.9 °F 37.0 °F 33% 29.99 in 10.0 mi South 8.1 mph - N/A   Clear
11:53 PM 66.9 °F 37.9 °F 34% 29.99 in 10.0 mi South 11.5 mph - N/A   Clear